Location: Unspecified
(22.6800°N, 112.2000°E)
Time: 07:52:41
(UTC+08:00)

Courier 1B Rocket - Pass Details

Date: 06 August 2021
Orbit: 920 x 1202 km, 28.3° (Epoch: 22 September)

Event Time Altitude Azimuth Distance (km) Brightness Sun altitude
Rises 19:59:45 0° 207° (SSW) 4,085 8.3 -11.7°
Reaches altitude 10° 20:03:36 10° 190° (S) 3,121 7.5 -12.5°
Maximum altitude 20:08:45 19° 149° (SSE) 2,488 6.6 -13.6°
Enters shadow 20:10:46 17° 129° (SE) 2,582 6.6 -14.0°
